Simultaneous Nadir Overpasses (SNOs) Predictions

Prediction of SNOs between LANDSAT-8 and METOP-B Satellite Orbit:

Table of predicted SNOs for the next 14.0 days since TLE Epoch: 11/24/2018
Index Date (LANDSAT-8) Time (LANDSAT-8) Lat,Lon (LANDSAT-8) SZA (LANDSAT-8 ) Date (METOP-B) Time (METOP-B) Lat,Lon (METOP-B) SZA (METOP-B ) Distance(km) Time Diff (sec)
1 11/24/2018 07:00:28 81.09, 114.22 103.86 11/24/2018 06:59:19 81.09, 114.31 103.84 1.51 69
2 11/24/2018 07:49:54 -81.11, -77.82 76.10 11/24/2018 07:49:58 -81.11, -77.78 76.09 0.78 4
3 11/27/2018 02:34:43 81.09,-179.31 104.38 11/27/2018 02:33:44 81.09,-179.18 104.37 2.28 59
4 11/27/2018 03:24:09 -81.11, -11.34 75.57 11/27/2018 03:24:23 -81.11, -11.25 75.55 1.44 14
5 11/29/2018 22:08:57 81.09,-112.86 104.84 11/29/2018 22:08:08 81.10,-112.69 104.85 2.99 49
6 11/29/2018 22:58:23 -81.11, 55.14 75.10 11/29/2018 22:58:47 -81.12, 55.26 75.08 2.10 24
7 12/02/2018 17:43:12 81.09, -46.43 105.25 12/02/2018 17:42:34 81.09, -46.60 105.21 3.04 38
8 12/02/2018 18:32:38 -81.11, 121.59 74.69 12/02/2018 18:33:12 -81.12, 121.75 74.66 2.76 34
9 12/05/2018 13:17:27 81.09, 19.99 105.60 12/05/2018 13:16:59 81.09, 19.84 105.57 2.52 28




NCC Satellite Simultaneous Nadir Overpasses (SNOs) Prediction Service
